Location: Newark
(34.9500°N, 139.9667°E)
Time: 23:26:30
(UTC+00:00)

Vanguard 2 Rocket - Pass Details

Date: 10 December 2019
Orbit: 554 x 3326 km, 32.9° (Epoch: 18 January)

Event Time Altitude Azimuth Distance (km) Brightness Sun altitude
Rises 11:56:44 0° 274° (W) 5,206 11.3 -54.1°
Reaches altitude 10° 12:00:54 10° 272° (W) 3,747 10.4 -54.9°
Enters shadow 12:03:16 18° 271° (W) 2,895 9.7 -55.4°
Maximum altitude 12:09:37 69° 192° (SSW) 1,053 - -56.7°
Drops below altitude 10° 12:14:43 10° 109° (ESE) 2,241 - -57.7°
Sets 12:16:40 0° 106° (ESE) 2,999 - -58.1°
